Create Custom Reports and Graphics: Custom Report

North/Central Map

Map

15 Minute Data

South County Map

Map

15 Minute Data

Northern Sonoma County Latest

25 Stations

15 Minute Data | America/Los_Angeles
as of 5/9/26 2:57 AM PDT
Station Date Time Temp (°F) RH (%) Dew Pt (°F) Wind Spd (mph) Wind Dir (°) Wind Gust (mph) Latest Rain (In) Daily Rain (In) Daily Max Temp (°F) Daily Min Temp (°F)
Bavarian Lion EFW 5/9/26 0245 49.3   2.7 - - - - - 0.00 0.00 51.8   0.6 49.2   2.7
Rockpile Lower (Cooley) 5/9/26 0230 55.3   6.9 62   28 42.8   3.0 2.3   1.2 NW | 317 4.3   1.0 0.00 0.00 58.2   6.1 54.9   7.0
Rockpile Upper (Cooley) 5/9/26 0245 56.5   9.9 52   40 39.2   5.2 5.8   4.1 NNW | 343 7.5   8.8 0.00 0.00 58.4   8.5 54.5   8.8
Lower Dry Creek Valley 5/9/26 0245 50.1   2.6 100   0 50.1   2.6 0.0   0.8 N | 0 0.0   2.5 0.00 0.00 51.7   1.0 49.6   2.3
Geyserville-South (Nervo Station) 5/9/26 0245 51.5   0.6 - - 0.0   3.0 N | 0 0.0   4.8 0.00 0.00 53.6   1.3 51.1   0.6
Franz Valley (Stornetta) 5/9/26 0245 48.8   2.5 95   1 47.5   2.7 0.1   0.6 SSE | 149 0.8   1.5 0.00 0.00 50.5   0.9 48.6   2.4
Geyserville (Ranch 3) 5/9/26 0245 51.8   1.6 100   0 51.8   1.6 0.0   2.2 N | 0 0.0   4.0 0.00 0.00 53.8   0.1 51.7   1.6
Geyserville-North (Hoffman) 5/9/26 0245 49.4   3.8 93   1 47.4   3.9 0.0   2.5 N | 0 0.0   4.6 0.00 0.00 51.9   1.7 49.2   3.8
Knights Valley (Bavarian Lion) 5/9/26 0245 49.2   2.0 97   0 48.3   2.1 0.6   1.7 WSW | 256 1.6   2.1 0.00 0.00 50.7   0.9 48.9   2.2
HWY 128/Chalk Hill Rd (Landslide) 5/9/26 0200 49.9   2.9 95   0 48.6   2.7 0.1   2.7 NNE | 24 1.0   3.8 0.00 0.00 51.1   2.1 49.8   2.9
Newman Knights Valley 5/9/26 0245 49.7   2.9 87   0 46.1   2.9 0.3   0.4 ENE | 57 1.5   1.7 0.00 0.00 51.1   1.8 49.4   3.1
Jimtown-North (Piccolo Ranch 15) 5/9/26 0245 49.2   3.7 100   0 49.2   3.7 0.0   2.6 N | 0 0.0   3.9 0.00 0.00 50.9   3.1 48.7   4.0
Peterson (Ranch 09) 5/9/26 0245 50.2   1.8 92   2 48.0   2.3 1.7   1.0 SSE | 158 2.4   2.2 0.00 0.00 52.2   0.3 50.0   1.8
Cloverdale-SE (Ranch 38) 5/9/26 0245 54.7   3.3 76   22 47.3   3.5 1.0   0.8 SSW | 192 3.0   1.0 0.00 0.00 57.7   5.8 54.3   3.3
Geyserville-East (Ranch 40) 5/9/26 0230 52.2   0.9 92   8 49.8   1.3 2.1   0.2 S | 182 3.5   0.4 0.00 0.00 54.4   2.9 51.7   0.7
N Chalk Hill Rd (Ranch 63) 5/9/26 0245 48.3   2.6 94   1 46.6   2.7 0.5   1.4 ENE | 60 1.5   1.8 0.00 0.00 50.3   1.1 48.1   2.7
Cloverdale-East (Ranch 83) 5/9/26 0245 51.9   0.5 - - 1.1   0.2 S | 179 3.2   0.1 0.00 0.00 54.4   1.8 51.6   0.1
Crazy Creek Ranch 5/9/26 0245 49.6   3.7 97   0 48.6   3.8 0.4   1.0 ESE | 102 1.4   1.9 0.00 0.00 51.7   2.1 49.6   3.6
Lytton East (Hill 5) 5/9/26 0245 50.9   0.6 91   6 48.4   2.3 1.1   0.9 W | 279 2.4   1.0 0.00 0.00 52.6   0.9 50.8   0.6
Lytton East (Shop Hill Bottom) 5/9/26 0245 50.0   1.6 93   3 48.1   2.4 1.1   0.8 WNW | 291 2.3   1.2 0.00 0.00 51.3   0.5 49.1   2.3
Lytton West Hill (23PS) 5/9/26 0245 51.2   1.0 92   5 48.9   2.5 0.6   0.9 ESE | 113 2.2   1.4 0.00 0.00 52.3   0.0 50.5   1.1
Lytton West Lower (Lew 6) 5/9/26 0245 47.6   4.2 97   3 46.8   5.0 0.7   0.3 N | 355 1.8   1.6 0.00 0.00 49.3   2.6 47.4   4.3
Whitton Ranch (201e) 5/9/26 0245 45.2   7.4 97   1 44.4   7.0 0.6   1.1 W | 277 1.3   2.8 0.00 0.00 47.6   5.0 45.0   7.3
Upper Dry Creek Valley 5/9/26 0245 48.7   3.9 93   3 46.7   4.6 0.5   0.3 SE | 141 1.9   0.4 0.00 0.00 51.5   1.3 48.6   3.8
Big River 5/9/26 0245 50.6   1.8 96   1 49.5   2.2 0.4   0.9 SE | 129 1.5   2.0 0.00 0.00 52.2   0.3 50.3   1.8
Max     56.5 100 51.8 5.8 - 7.5 0.00 0.00 58.4 54.9
Avg     50.5 90 47.5 0.9 - 1.9 0.00 - - -
Min     45.2 52 39.2 0.0 - 0.0 0.00 0.00 47.6 45.0

Central Sonoma County Latest

37 Stations

15 Minute Data | America/Los_Angeles
as of 5/9/26 2:57 AM PDT
Station Date Time Temp (°F) RH (%) Dew Pt (°F) Wind Spd (mph) Wind Dir (°) Wind Gust (mph) Latest Rain (In) Daily Rain (In) Daily Max Temp (°F) Daily Min Temp (°F)
Windsor-NW (Ranch 8) 5/9/26 0245 49.9   2.3 84   1 45.1   2.7 0.0   0.8 SW | 231 0.0   2.3 0.00 0.00 52.0   0.5 49.9   2.1
Windsor-East (Ranch 16) 5/9/26 0245 47.2   5.4 95   3 46.0   4.6 0.2   2.0 ENE | 61 1.1   3.1 0.00 0.00 49.2   3.8 47.1   5.1
Mark West-North (Ranch 14) 5/9/26 0245 50.6   1.7 90   4 47.7   2.8 0.2   1.4 NNW | 327 1.5   2.3 0.00 0.00 51.4   1.5 50.2   2.0
Windsor-SE (Silk Rd) 5/9/26 0245 47.2   5.1 97   1 46.3   5.2 0.0   1.3 N | 0 0.0   4.5 0.00 0.00 48.9   3.6 47.0   5.1
Fulton-NW (Ranch 5) 5/9/26 0245 48.5   3.9 95   1 47.2   3.4 0.0   2.3 N | 0 0.0   4.6 0.00 0.00 50.5   2.4 48.4   3.9
Bisordi (Fulton) 5/9/26 0245 48.0   4.6 94   2 46.3   4.1 0.0   1.9 WNW | 290 0.6   3.3 0.00 0.00 50.0   3.0 48.0   4.5
Windsor-South (Laughlin Rd) 5/9/26 0245 49.7   2.1 91   2 47.1   2.8 - - - 0.00 0.00 51.1   1.5 49.5   2.2
Fulton-SE (Barnes Rd) 5/9/26 0245 51.4   1.2 88   4 47.8   2.2 1.0   1.6 ESE | 120 2.5   2.6 0.00 0.00 53.0   0.5 51.1   1.4
Fulton-SW (Ranch 21) 5/9/26 0230 48.9   2.7 93   2 47.0   3.4 0.0   2.5 SE | 142 0.7   3.9 0.00 0.00 49.5   2.7 48.7   2.8
NW Santa Rosa (Piner Road) 5/9/26 0245 48.3   3.3 100   0 48.3   3.3 0.0   1.3 N | 0 0.0   3.2 0.00 0.00 49.4   2.8 48.3   3.3
River Rd South (Denner Ranch) 5/9/26 0245 47.5   3.9 0   0 -69.0   2.2 1.2   0.1 NE | 36 1.8   0.9 - - 49.0   2.8 47.3   3.7
West Santa Rosa (LOV Vineyard) 5/9/26 0245 48.2   3.3 95   2 46.7   3.7 0.0   0.9 N | 0 0.0   3.8 0.00 0.00 49.9   2.0 48.0   3.4
Guerneville Rd (Prokopakis) 5/9/26 0245 48.9   3.2 96   1 47.7   3.5 - - - 0.00 0.00 50.4   1.9 48.8   3.1
SunnyView Vineyard (SCWC) 5/9/26 0245 46.5   4.7 95   0 45.1   4.8 0.0   1.2 N | 0 0.0   3.4 0.00 0.00 47.7   4.3 46.3   4.8
Guerneville Rd West (Balletto) 5/9/26 0245 47.5   4.2 95   3 46.2   5.0 0.3   1.9 E | 92 1.2   2.6 0.00 0.00 49.4   2.8 47.2   4.5
Sanchietti Ranch 5/9/26 0245 48.1   4.6 94   0 46.6   4.7 0.8   0.8 ESE | 120 1.6   2.6 0.00 0.00 49.9   3.2 48.1   4.4
Occidental Rd (Sebastopol) 5/9/26 0245 46.4   4.8 100   0 46.4   4.8 0.0   0.3 N | 0 0.0   2.0 0.00 0.00 48.2   3.5 46.2   4.8
Harper's Rest (Windsor-West) 5/9/26 0245 46.0   4.5 96   0 44.8   4.6 1.6   0.5 WSW | 258 2.2   1.8 0.00 0.00 47.5   3.4 45.7   4.7
Lower Westside Rd (Ranch 12) 5/9/26 0245 48.2   3.8 96   0 47.0   3.9 0.0   0.4 N | 0 0.0   1.8 0.00 0.00 50.2   2.3 48.0   3.7
Guerneville (Laughlin Rd) 5/9/26 0245 48.2   2.8 95   1 46.8   3.2 0.0   1.6 N | 0 0.0   3.4 0.00 0.00 49.9   1.9 48.2   2.7
Korbel (Winery) 5/9/26 0245 50.6   1.4 95   0 49.3   1.4 0.0   0.0 N | 0 0.0   0.0 0.00 0.00 52.1   0.8 50.4   1.6
Forestville (Shone Farms) 5/9/26 0245 48.8   2.8 94   2 47.2   3.4 0.0   0.5 NE | 39 0.8   1.6 0.00 0.00 50.8   2.2 47.5   2.7
Forestville-NE (Ranch 30) 5/9/26 0245 47.1   3.9 98   0 46.6   3.9 0.0   0.3 N | 0 0.0   1.8 0.00 0.00 49.3   2.2 47.0   3.8
Foggy Bend (Ranch 41) 5/9/26 0245 49.0   3.2 95   0 47.7   3.3 0.1   0.7 SW | 228 0.9   1.5 0.00 0.00 50.7   1.8 48.7   3.5
Last Stop 5/9/26 0245 45.8   5.8 96   0 44.8   5.9 0.2   0.8 WNW | 282 1.0   1.0 0.00 0.00 48.0   3.6 45.8   5.6
Green Valley Vineyard 5/9/26 0245 48.2   2.5 97   1 47.3   2.8 0.5   1.0 NNW | 343 1.3   2.4 0.00 0.00 49.1   1.9 47.6   2.7
Park Royal 5/9/26 0245 49.1   2.0 92   5 46.9   3.6 - - - 0.00 0.00 50.1   2.1 48.5   2.5
Merino 5/9/26 0245 46.8   4.6 100   0 46.7   4.5 0.0   2.1 N | 0 0.0   3.8 0.00 0.00 47.8   4.3 46.5   4.8
Green Valley (Sanchietti) 5/9/26 0245 46.8   5.2 - - - - - - - 49.4   3.0 46.6   5.2
Keefer Ranch (Green Valley) 5/9/26 0245 46.5   5.0 96   0 45.5   5.1 - - - 0.00 0.00 47.8   4.0 46.4   5.0
Graton-West (Dutton Ranch) 5/9/26 0245 48.0   3.8 100   0 48.0   3.8 0.2   0.2 N | 10 0.9   0.5 0.00 0.00 49.2   2.7 47.8   3.6
Graton-South (Mill Station Rd) 5/9/26 0245 46.2   4.5 96   3 45.0   5.2 0.0   0.0 N | 0 0.0   0.6 0.00 0.00 48.0   3.2 45.5   5.0
Occidental (Horseshoe Bend) 5/9/26 0245 50.1   0.9 97   3 49.2   0.0 - - - 0.00 0.00 53.1   3.3 49.3   0.2
Sexton Valley (Jacqueline's Blk) 5/9/26 0245 46.1   5.0 96   1 45.0   5.4 0.0   0.7 SSW | 210 0.5   2.7 0.00 0.00 47.5   4.2 45.8   5.3
Sebastopol Hills (Burnside Rd) 5/9/26 0245 49.4   0.2 96   4 48.4   1.2 0.0   1.4 N | 0 0.0   3.2 0.00 0.00 50.3   0.1 49.2   0.2
Pleasant Hill 5/9/26 0245 45.7   4.4 96   1 44.7   4.5 0.4   0.7 ENE | 70 1.3   1.1 0.00 0.00 47.5   3.1 45.5   4.5
Seaview/Fort Ross (Hirsch) 5/9/26 0245 58.4   10.8 52   44 41.0   5.7 3.3   1.1 NNW | 346 6.9   2.8 0.00 0.00 58.6   2.7 56.2   8.6
Max     58.4 100 49.3 3.3 - 6.9 0.00 0.00 58.6 56.2
Avg     48.3 91 43.3 0.3 - 0.9 0.00 - - -
Min     45.7 0 -69.0 0.0 - 0.0 0.00 0.00 47.5 45.5

Southern Sonoma County Latest

20 Stations

15 Minute Data
as of 5/9/26 2:57 AM PDT
Station Date Time Temp (°F) RH (%) Dew Pt (°F) Wind Spd (mph) Wind Dir (°) Wind Gust (mph) Latest Rain (In) Daily Rain (In) Daily Min Temp (°F) Daily Max Temp (°F)
Upper Rincon Valley 5/9/26 0245 50.9   2.7 87   12 47.1   0.7 1.8   0.8 N | 6 2.6   0.2 0.00 0.00 50.7   2.8 55.2   6.0
Lower Bennett Valley 5/9/26 0245 44.6   5.7 100   0 44.6   5.7 1.8   1.3 W | 279 2.4   3.3 0.00 0.00 44.2   5.8 46.1   4.6
Kenwood (Wildwood) 5/9/26 0245 48.2   3.0 100   0 48.2   3.1 0.0   2.6 S | 184 0.4   4.5 0.00 0.00 48.0   3.1 50.2   1.7
Crane Creek (Ranch 62) 5/9/26 0245 47.9   2.9 95   2 46.7   3.4 0.4   1.4 ENE | 58 1.7   2.5 0.00 0.00 47.5   3.2 48.2   3.0
Rohnert Park-West (Stony Point) 5/9/26 0245 45.6   5.5 96   0 44.6   5.5 0.0   0.0 N | 0 0.0   0.0 0.00 0.00 45.6   5.3 47.2   4.8
Rice-Spivak Vineyard 5/9/26 0245 39.9   10.9 - - - - - - - 39.8   10.8 40.8   10.5
Cartograph Wines Base 5/9/26 0245 47.9   2.3 96   2 46.9   2.7 0.2   2.2 SW | 219 1.2   4.7 0.00 0.00 47.8   2.4 48.8   2.1
Cartograph Wines Remote 5/9/26 0245 45.4   5.5 - - - - - - - 45.4   5.3 46.5   5.1
Penngrove (Asellus) 5/9/26 0245 44.6   6.6 96   3 43.4   5.8 0.0   2.3 N | 0 0.0   5.0 0.00 0.00 44.1   7.0 46.0   5.8
Sonoma Valley (Bedrock) 5/9/26 0245 46.0   4.7 95   1 44.6   4.4 - - - 0.00 0.00 45.4   5.1 48.3   3.0
Sonoma-West (Arnold) 5/9/26 0245 45.1   7.4 96   4 44.1   6.4 0.5   1.4 SW | 229 1.8   1.5 0.00 0.00 44.7   7.2 47.0   5.6
Sonoma Valley HS 5/9/26 0245 48.0   4.2 100   2 47.9   3.6 0.0   1.5 N | 0 0.0   3.5 0.00 0.00 47.5   4.7 49.2   3.7
Sonoma East (Bundschu01) 5/9/26 0245 47.7   4.8 92   1 45.3   4.5 1.2   1.4 N | 352 2.0   4.2 0.00 0.00 47.6   4.7 50.0   2.9
Sonoma-SE (Napoli) 5/9/26 0245 47.9   4.3 89   1 44.9   4.7 0.0   3.7 N | 0 0.0   6.8 0.00 0.00 47.5   4.5 50.8   1.9
Schellville (Sasaki) 2/7/26 1900 53.4   2.2 88   10 49.9   1.0 3.3   1.8 SW | 225 5.8   4.0 0.00 0.00 47.0   0.8 62.8   8.4
Petaluma (Ranch 10) 5/9/26 0245 44.5   8.3 94   6 42.9   6.4 0.1   4.1 E | 92 1.1   6.9 0.00 0.00 44.2   8.4 46.4   6.6
Carneros (Ranch 71) 5/9/26 0245 50.5   0.5 89   5 47.3   2.0 1.5   6.5 NNE | 29 3.3   8.9 0.00 0.00 50.2   0.7 51.9   0.6
Ricci Vineyards (Carneros) 5/9/26 0245 47.9   4.0 94   2 46.2   3.4 0.6   5.1 N | 5 2.3   7.1 0.00 0.00 47.4   3.6 48.8   3.2
Carneros Upper (Ranch 81) 5/9/26 0245 51.7   0.7 85   15 47.4   3.5 0.8   8.6 WNW | 287 2.5   11.5 - - 50.1   0.8 52.7   1.5
Carneros Lower (Ranch 81) 5/9/26 0245 47.7   4.4 92   0 45.5   4.3 0.0   0.7 N | 0 0.0   3.9 0.00 0.00 47.7   4.3 50.7   1.7
Max     51.7 100 48.2 1.8 - 3.3 0.00 0.00 50.7 55.2
Avg     46.9 94 45.7 0.5 - 1.3 0.00 - - -
Min     39.9 85 42.9 0.0 - 0.0 0.00 0.00 39.8 40.8

AQI Map

Map

Hourly Data